Location: Lecco
(45.8566°N, 9.3977°E)
Time: 13:05:46
(UTC+02:00)

Explorer 11/Cluster Stage 4 - Pass Details

Date: 23 August 2020
Orbit: 467 x 1258 km, 28.8° (Epoch: 24 September)

Event Time Altitude Azimuth Distance (km) Brightness Sun altitude
Rises 18:39:38 0° 216° (SW) 2,994 10.1 15.8°
Reaches altitude 10° 18:43:40 10° 183° (S) 2,282 9.0 15.1°
Maximum altitude 18:45:21 11° 164° (SSE) 2,268 8.8 14.8°
Drops below altitude 10° 18:47:08 10° 146° (SE) 2,457 8.8 14.5°
Sets 18:52:02 0° 116° (ESE) 3,636 9.4 13.6°
